Weather History for Ft Lauderdale, FL

Change the Weather History Date:

Monday, July 1, 2013

  Actual Average Record
Temperature  
Mean Temperature 83 °F 84 °F  
Max Temperature 88 °F 90 °F 97 °F (1998)
Min Temperature 77 °F 78 °F 66 °F (1923)
Degree Days  
Heating Degree Days 0 0  
Month to date heating degree days 0 0  
Since 1 June heating degree days 0 0  
Since 1 July heating degree days 0 0  
Cooling Degree Days 18 19  
Month to date cooling degree days 18 19  
Year to date cooling degree days 1958 1980  
Since 1 June cooling degree days 562 562  
Growing Degree Days 32 (Base 50)    
Moisture  
Dew Point 74 °F    
Average Humidity 79    
Maximum Humidity 94    
Minimum Humidity 63    
Precipitation  
Precipitation 0.29 in 0.24 in 3.05 in (1926)
Month to date precipitation 0.29 0.24  
Year to date precipitation 39.80 27.89  
Snow  
Snow 0.00 in - - ()
Month to date snowfall 0.0  
Since 1 June snowfall 0.0  
Since 1 July snowfall 0.0  
Snow Depth 0.00 in    
Sea Level Pressure  
Sea Level Pressure 29.97 in    
Wind  
Wind Speed 9 mph (SSE)    
Max Wind Speed 23 mph    
Max Gust Speed 29 mph    
Visibility 9 miles    
Events Rain    
T = Trace of Precipitation, MM = Missing Value Source: NWS Daily Summary

Daily Weather History Graph

Daily Weather History Graph

Search for Another Location

Airport:

Trip Planner

Search our weather history database for the weather conditions in past years. The results will help you decide how hot, cold, wet, or windy it might be!

Date:

Astronomy

Jul. 01, 2013 Rise Set
Actual Time 6:32 AM EDT 8:16 PM EDT
Civil Twilight 6:06 AM EDT 8:42 PM EDT
Nautical Twilight 5:34 AM EDT 9:14 PM EDT
Astronomical Twilight 5:02 AM EDT 9:46 PM EDT
Moon 1:39 AM EDT (7/1) 2:48 PM EDT (7/1)
Length of Visible Light 14h 36m
Length of Day
13h 44m
Waning Crescent, 35% of the Moon is Illuminated
Jul 1
Waning Crescent
Jul 8
New
Jul 15
First Quarter
Jul 22
Full
Jul 29
Last Quarter

Hourly Weather History & Observations

Time (EDT) Temp. Heat Index Dew Point Humidity Pressure Visibility Wind Dir Wind Speed Gust Speed Precip Events Conditions
12:53 AM 79.0 °F - 73.9 °F 84% 29.97 in 10.0 mi SSW 5.8 mph - N/A   Mostly Cloudy
1:53 AM 80.1 °F 84.5 °F 73.9 °F 81% 29.95 in 10.0 mi South 4.6 mph - N/A   Scattered Clouds
2:53 AM 80.1 °F 84.5 °F 73.9 °F 81% 29.93 in 10.0 mi South 4.6 mph - N/A   Partly Cloudy
3:53 AM 81.0 °F 86.2 °F 73.9 °F 79% 29.93 in 10.0 mi South 8.1 mph - N/A   Mostly Cloudy
4:53 AM 81.0 °F 86.2 °F 73.9 °F 79% 29.93 in 10.0 mi SSE 9.2 mph - N/A   Partly Cloudy
5:53 AM 81.0 °F 87.3 °F 75.9 °F 85% 29.93 in 10.0 mi SSE 6.9 mph - N/A   Scattered Clouds
6:28 AM 82.4 °F 88.2 °F 73.4 °F 74% 29.95 in 1.0 mi SSE 19.6 mph 27.6 mph 0.05 in Rain Heavy Rain
6:32 AM 78.8 °F - 73.4 °F 83% 29.95 in 6.0 mi ESE 9.2 mph 27.6 mph 0.13 in Rain Light Rain
6:53 AM 80.1 °F 85.1 °F 75.0 °F 85% 29.96 in 10.0 mi SSE 9.2 mph - 0.13 in   Scattered Clouds
7:53 AM 81.0 °F 87.3 °F 75.9 °F 85% 29.97 in 8.0 mi SSE 10.4 mph - 0.00 in Rain Light Rain
8:53 AM 82.9 °F 90.8 °F 75.9 °F 79% 29.97 in 10.0 mi South 12.7 mph 18.4 mph 0.00 in   Scattered Clouds
9:53 AM 84.9 °F 94.1 °F 75.9 °F 74% 29.97 in 10.0 mi SSE 16.1 mph 20.7 mph N/A   Mostly Cloudy
10:44 AM 86.0 °F 95.1 °F 75.2 °F 70% 29.98 in 10.0 mi SSE 18.4 mph 25.3 mph N/A   Scattered Clouds
10:53 AM 86.0 °F 96.0 °F 75.9 °F 72% 29.97 in 10.0 mi SE 17.3 mph - N/A   Scattered Clouds
11:53 AM 88.3 °F 97.9 °F 74.7 °F 64% - 10.0 mi SE 17.3 mph - N/A   Partly Cloudy
12:53 PM 88.9 °F 98.1 °F 74.5 °F 62% - 10.0 mi SE 20.7 mph - N/A   Scattered Clouds
1:53 PM 87.1 °F 97.3 °F 75.9 °F 69% 29.98 in 10.0 mi SSE 19.6 mph 26.5 mph N/A   Partly Cloudy
4:53 PM 84.2 °F 92.3 °F 75.2 °F 74% 29.96 in 10.0 mi South 15.0 mph 23.0 mph N/A   Scattered Clouds
5:53 PM 84.9 °F 92.1 °F 73.9 °F 69% 29.98 in 10.0 mi South 10.4 mph - N/A   Scattered Clouds
6:53 PM 84.9 °F 92.1 °F 73.9 °F 69% 29.99 in 10.0 mi South 12.7 mph - N/A   Scattered Clouds
7:02 PM 80.6 °F 85.4 °F 73.4 °F 79% 29.99 in 2.5 mi South 9.2 mph 20.7 mph 0.16 in Rain Heavy Rain
7:05 PM 80.6 °F 83.9 °F 69.8 °F 70% 29.99 in 3.0 mi South 5.8 mph 20.7 mph 0.16 in Rain Heavy Rain
7:53 PM 79.0 °F - 75.0 °F 88% 30.00 in 10.0 mi WNW 3.5 mph - 0.16 in   Partly Cloudy
8:53 PM 78.1 °F - 75.0 °F 90% 30.01 in 10.0 mi NNW 3.5 mph - N/A   Scattered Clouds
9:53 PM 77.0 °F - 75.0 °F 94% 30.02 in 10.0 mi Calm Calm - N/A   Partly Cloudy
10:53 PM 77.0 °F - 73.9 °F 90% 30.03 in 10.0 mi Calm Calm - N/A   Partly Cloudy
11:53 PM 78.1 °F - 75.0 °F 90% 30.04 in 10.0 mi Calm Calm - N/A   Partly Cloudy